Weather in Akure

Nigeria     7°14′53″N   5°10′45″E
temp.,
°C
wind,
m/s
gust,
m/s
humid.,
%
clouds,
%
prec.,
mm/h
press.,
hPa
HPBL,
m
26 june, sun
sun2601:00+22w1499100 0.4 1013155
04:00+21sw119999 0.2 101368
07:00+22wsw139998 0.2 1014209
10:00+24nw1192100 0.3 1016262
13:00+23ne1195100 2.6 101489
16:00+24sw0187100 0.2 1012305
19:00+23sw1195100 0.2 101211
22:00+22ssw1199100 0.0 101315
27 june, mon
mon2701:00+21ssw1199100 0.0 101459
04:00+21wsw1199100 0.0 101221
07:00+21sw0197100 0.0 101441
10:00+26ssw1275100 0.0 1015718
13:00+29sse2362100 0.2 10131262
16:00+26s127488 0.3 1012540
19:00+24sw118677 0.3 101214
22:00+22sw119812 0.0 101331
28 june, tue
tue2801:00+22sw1410072 0.0 1013143
04:00+22sw1598100 0.0 1012225
07:00+22wsw149598 0.0 1014292
10:00+27sw2369100 0.0 1014844
13:00+30ssw335995 0.0 10121505
16:00+28ssw346862 0.2 10111038
19:00+24sw26865 0.6 1012313
22:00+22sw2696100 0.0 1014265
29 june, wed
wed2901:00+22wsw2799100 0.0 1014316
04:00+22wsw1699100 0.0 1013280
07:00+22wsw1597100 0.0 1015234
10:00+26wnw2376100 0.1 1016791
13:00+25nnw1386100 3.6 1014487
16:00+24ssw2494100 3.1 1012247
19:00+22ssw279799 3.1 1012360
22:00+22wsw129896 0.1 1014139
30 june, thu
thu3001:00+22w2698100 0.3 1014277
04:00+21wnw129960 0.1 101388
07:00+21w129999 1.7 101484
10:00+25sw238087 0.4 1015747
13:00+27ssw227354 1.6 1013992
16:00+26ssw348290 2.1 1011515
19:00+23ssw2594100 3.1 1012275
22:00+22ssw1698100 0.0 1014294